Simultaneous Nadir Overpasses (SNOs) Predictions

Prediction of SNOs between GOES-15 and METOP-A Satellite Orbit:

Table of predicted SNOs for the next 14.0 days since TLE Epoch: 11/2/2011
Index Date Time (GOES-15) GOES-15 Lat,Lon METOP-A Lat,Lon Distance(km) Time Diff (sec)
1 11/04/2011 04:17:07 0.24,-103.34 0.45,-102.49 97.99 72
2 11/05/2011 16:38:19 -0.24,-104.69 0.32,-107.10 275.40 62
3 11/06/2011 16:15:54 -0.24,-105.48 -0.97,-102.15 378.76 47
4 11/08/2011 04:37:00 0.24,-106.58 0.20,-106.80 24.64 74
5 11/09/2011 16:55:29 -0.23,-107.94 0.56,-111.41 396.13 45
6 11/10/2011 16:33:05 -0.23,-108.73 -0.74,-106.46 257.98 63
7 11/12/2011 04:54:24 0.22,-109.81 -0.07,-111.10 147.37 71
8 11/14/2011 16:50:23 -0.21,-111.96 -0.48,-110.77 136.50 71




NCC Satellite Simultaneous Nadir Overpasses (SNOs) Prediction Service
